Regional Weather Roundup
Issued by NWS Northern Indiana

Home | Current Version | Previous Version | Graphics & Text | Print | Product List | Glossary On
Versions: 1 2 3 4 5 6 7 8 9 10 11 12 13 14 15 16 17 18 19 20 21 22 23 24 25 26 27 28 29 30 31 32 33 34 35 36 37 38 39 40 41 42 43 44 45 46 47 48 49 50
000
ASUS43 KIWX 301110
RWRIWX

KIWX WEATHER ROUNDUP
NATIONAL WEATHER SERVICE NORTHERN INDIANA
700 AM EDT THU JUL 30 2015

NOTE: "FAIR" INDICATES FEW OR NO CLOUDS BELOW 12,000 FEET WITH NO
SIGNIFICANT WEATHER AND/OR OBSTRUCTIONS TO VISIBILITY.

* THESE STATIONS ARE NOT UNDER NWS QUALITY CONTROL. THEY ALSO MAY NOT
  REPORT WEATHER SUCH AS PRECIPITATION OR FOG.

INZ001>027-301200-
NORTHERN INDIANA

CITY           SKY/WX    TMP DP  RH WIND       PRES   REMARKS
GARY*          CLEAR     68  59  73 W8        30.05R
VALPARAISO     CLEAR     62  57  83 W5        30.05R
MICHIGAN CITY* CLEAR     59  59 100 SW3       30.03R
LAPORTE*       CLEAR     63  58  84 W5        30.04R
KNOX*          CLEAR     61  57  88 W7        30.03R
SOUTH BEND     CLEAR     62  58  86 SW5       30.03R
ELKHART*       CLEAR     61  57  88 CALM      30.02
GOSHEN         CLEAR     61  57  87 SW6       30.02R
MONTICELLO*    CLEAR     62  61  95 W5        30.05R
LOGANSPORT*    CLEAR     59  54  82 W5        30.06R
ROCHESTER*     CLEAR     63  61  94 W6        30.05R
WARSAW*        CLEAR     59  55  88 W6        30.04R
ANGOLA*        CLEAR     63  57  82 W3        30.01R
FORT WAYNE     PTCLDY    62  58  86 W8        30.04R
HUNTINGTON*    CLEAR     62  58  86 W6        30.04R
PERU/GRISSOM   CLEAR     60  58  92 W6        30.05R
MARION*        CLEAR     59  57  92 CALM      30.06R

$$
INZ028>050-301200-
CENTRAL INDIANA

CITY           SKY/WX    TMP DP  RH WIND       PRES   REMARKS
LAFAYETTE      CLEAR     60  59  96 W3        30.06R
KOKOMO*        CLEAR     63  55  77 W8        30.06R
MUNCIE*        CLEAR     63  59  87 W7        30.06R
INDIANAPOLIS   PTCLDY    65  58  78 NW8       30.06R

$$
MIZ043>046-050>051-056>058-064>065-071>073-077>080-301200-
SOUTHWEST LOWER MICHIGAN

CITY           SKY/WX    TMP DP  RH WIND       PRES   REMARKS
BATTLE CREEK   CLEAR     66  59  78 W7        29.99R
BENTON HARBOR  CLEAR     70  63  78 W8        30.00R
COLDWATER*     CLEAR     60  57  90 W5        30.00R
HILLSDALE*     CLEAR     63  60  89 W6        30.00R
HOLLAND        CLEAR     71  59  65 W9        29.98R
GRAND RAPIDS   CLEAR     65  58  78 W7        29.96R
KALAMAZOO      CLEAR     66  58  75 SW7       30.00R
STURGIS*       CLEAR     61  59  94 W5        30.01R
THREE RIVERS*  FAIR      65  59  81 W5        30.01R

$$
OHZ001>008-015>018-024>025-301200-
NORTHWEST OHIO

CITY           SKY/WX    TMP DP  RH WIND       PRES   REMARKS
WAUSEON*       FAIR      61  59  94 W6        29.99R
DEFIANCE       CLEAR     63  58  83 SW3       30.01R
FINDLAY        CLEAR     62  58  86 W6        30.00R
TOLEDO EXPRESS CLEAR     62  58  86 W7        29.98R
TOLEDO METCALF CLEAR     64  58  80 W6        29.99R
LIMA           CLEAR     64  59  83 W6        30.02R

$$
AND FOR LAKE MICHIGAN COASTAL AND OPEN LAKE BUOY OBSERVATIONS

STATION/POSITION TEMP    WIND        PRES    VSBY  WAVE
                 AIR SEA DIR/SP/G                  HT/PER
                 (F)     (DEG/KT/KT) (MB)    (MI)  (FT/S)
MICHIGAN CITY     72     240/ 15/ 17   N/A
BURNS HARBOR      72     270/ 15/ 17 1016.9R
SAINT JOSEPH      72     250/  9/ 13 1017.3R
4 MI NW BRIDGMAN  72 73  330/ 14/ 16   N/A           3/ 4
MICHIGAN CITY     74 73  290/ 16/ 19   N/A           4/ 4

$$
&&


USA.gov is the U.S. government's official web portal to all federal, state and local government web resources and services.